Time,TemperatureF,DewpointF,PressureIn,WindDirection,WindDirectionDegrees,WindSpeedMPH,WindSpeedGustMPH,Humidity,HourlyPrecipIn,Conditions,Clouds,dailyrainin,SolarRadiationWatts/m^2,SoftwareType,DateUTC
2013-03-01 00:00:00,36.7,30.5,29.55,NNE,27,5.0,7.0,78,0.00,,,0.05,0,Wunderground v.1.15,2013-03-01 05:00:00,
2013-03-01 00:01:00,36.7,30.5,29.55,NNE,26,5.0,7.0,78,0.00,,,0.00,0,Wunderground v.1.15,2013-03-01 05:01:00,
2013-03-01 00:04:00,36.6,30.4,29.55,North,5,8.0,8.0,78,0.00,,,0.00,0,Wunderground v.1.15,2013-03-01 05:04:00,
2013-03-01 00:06:00,36.6,30.4,29.55,North,360,4.0,8.0,78,0.00,,,0.00,0,Wunderground v.1.15,2013-03-01 05:06:00,
2013-03-01 00:12:00,36.5,30.3,29.55,NNE,23,9.0,9.0,78,0.00,,,0.00,0,Wunderground v.1.15,2013-03-01 05:12:00,
2013-03-01 00:17:00,36.5,30.3,29.55,NNE,24,5.0,9.0,78,0.00,,,0.00,0,Wunderground v.1.15,2013-03-01 05:17:00,
2013-03-01 00:22:00,36.5,30.0,29.55,North,11,6.0,12.0,77,0.00,,,0.00,0,Wunderground v.1.15,2013-03-01 05:22:00,
2013-03-01 00:27:00,36.7,29.8,29.55,NNE,30,12.0,12.0,76,0.00,,,0.00,0,Wunderground v.1.15,2013-03-01 05:27:00,
2013-03-01 00:32:00,36.8,29.6,29.55,North,355,6.0,10.0,75,0.00,,,0.00,0,Wunderground v.1.15,2013-03-01 05:32:00,
2013-03-01 00:38:00,37.0,29.8,29.55,NNE,24,6.0,16.0,75,0.00,,,0.00,0,Wunderground v.1.15,2013-03-01 05:38:00,
2013-03-01 00:43:00,37.0,29.8,29.55,NNE,30,7.0,11.0,75,0.00,,,0.00,0,Wunderground v.1.15,2013-03-01 05:43:00,
2013-03-01 00:48:00,36.8,29.6,29.55,North,355,6.0,11.0,75,0.00,,,0.00,0,Wunderground v.1.15,2013-03-01 05:48:00,
2013-03-01 00:53:00,36.5,29.3,29.55,NNE,12,12.0,12.0,75,0.00,,,0.00,0,Wunderground v.1.15,2013-03-01 05:53:00,
2013-03-01 00:59:00,36.5,29.3,29.55,NNE,15,13.0,17.0,75,0.00,,,0.00,0,Wunderground v.1.15,2013-03-01 05:59:00,
2013-03-01 01:05:00,36.4,29.2,29.55,North,355,15.0,15.0,75,0.00,,,0.00,0,Wunderground v.1.15,2013-03-01 06:05:00,
2013-03-01 01:10:00,36.3,29.1,29.55,NNE,29,8.0,10.0,75,0.00,,,0.00,0,Wunderground v.1.15,2013-03-01 06:10:00,
2013-03-01 01:15:00,36.2,29.4,29.55,NNE,24,9.0,17.0,76,0.00,,,0.00,0,Wunderground v.1.15,2013-03-01 06:15:00,
2013-03-01 01:20:00,36.0,29.5,29.55,NNE,17,8.0,8.0,77,0.00,,,0.00,0,Wunderground v.1.15,2013-03-01 06:20:00,
2013-03-01 01:26:00,35.7,29.2,29.55,NNE,19,11.0,11.0,77,0.00,,,0.00,0,Wunderground v.1.15,2013-03-01 06:26:00,
2013-03-01 01:31:00,35.6,29.1,29.56,North,355,7.0,8.0,77,0.00,,,0.00,0,Wunderground v.1.15,2013-03-01 06:31:00,
2013-03-01 01:36:00,35.6,29.4,29.56,NNE,17,4.0,10.0,78,0.00,,,0.00,0,Wunderground v.1.15,2013-03-01 06:36:00,
2013-03-01 01:41:00,35.5,29.3,29.56,North,360,11.0,11.0,78,0.00,,,0.00,0,Wunderground v.1.15,2013-03-01 06:41:00,
2013-03-01 01:46:00,35.5,29.3,29.56,North,355,9.0,14.0,78,0.00,,,0.00,0,Wunderground v.1.15,2013-03-01 06:46:00,
2013-03-01 01:51:00,35.5,29.3,29.56,NNE,24,8.0,11.0,78,0.00,,,0.00,0,Wunderground v.1.15,2013-03-01 06:51:00,
2013-03-01 01:57:00,35.5,29.3,29.56,NNE,33,2.0,11.0,78,0.00,,,0.00,0,Wunderground v.1.15,2013-03-01 06:57:00,
2013-03-01 02:02:00,35.4,29.2,29.56,NNE,13,3.0,9.0,78,0.00,,,0.00,0,Wunderground v.1.15,2013-03-01 07:02:00,
2013-03-01 02:07:00,35.4,29.2,29.56,North,360,5.0,12.0,78,0.00,,,0.00,0,Wunderground v.1.15,2013-03-01 07:07:00,
2013-03-01 02:12:00,35.3,29.1,29.56,NNE,22,5.0,10.0,78,0.00,,,0.00,0,Wunderground v.1.15,2013-03-01 07:12:00,
2013-03-01 02:17:00,35.3,29.1,29.56,NNE,24,2.0,10.0,78,0.00,,,0.00,0,Wunderground v.1.15,2013-03-01 07:17:00,
2013-03-01 02:22:00,35.2,29.0,29.56,NNE,26,6.0,16.0,78,0.00,,,0.00,0,Wunderground v.1.15,2013-03-01 07:22:00,
2013-03-01 02:27:00,35.2,29.0,29.56,NE,45,3.0,16.0,78,0.00,,,0.00,0,Wunderground v.1.15,2013-03-01 07:27:00,
2013-03-01 02:32:00,35.2,29.0,29.56,NNW,344,2.0,9.0,78,0.00,,,0.00,0,Wunderground v.1.15,2013-03-01 07:32:00,
2013-03-01 02:37:00,35.0,28.8,29.55,NW,321,7.0,9.0,78,0.00,,,0.00,0,Wunderground v.1.15,2013-03-01 07:37:00,
2013-03-01 02:42:00,34.9,28.7,29.56,NNW,348,2.0,7.0,78,0.00,,,0.00,0,Wunderground v.1.15,2013-03-01 07:42:00,
2013-03-01 02:47:00,34.8,28.6,29.56,NNE,19,3.0,11.0,78,0.00,,,0.00,0,Wunderground v.1.15,2013-03-01 07:47:00,
2013-03-01 02:53:00,34.9,28.7,29.55,NNE,28,6.0,8.0,78,0.00,,,0.00,0,Wunderground v.1.15,2013-03-01 07:53:00,
2013-03-01 02:58:00,34.9,28.7,29.56,North,5,6.0,8.0,78,0.00,,,0.00,0,Wunderground v.1.15,2013-03-01 07:58:00,
2013-03-01 03:03:00,34.9,28.7,29.56,North,360,4.0,9.0,78,0.00,,,0.00,0,Wunderground v.1.15,2013-03-01 08:03:00,
2013-03-01 03:08:00,34.9,28.7,29.56,NE,50,2.0,9.0,78,0.00,,,0.00,0,Wunderground v.1.15,2013-03-01 08:08:00,
2013-03-01 03:13:00,34.8,28.6,29.56,North,360,7.0,10.0,78,0.00,,,0.00,0,Wunderground v.1.15,2013-03-01 08:13:00,
2013-03-01 03:18:00,34.8,28.3,29.56,NNE,19,5.0,10.0,77,0.00,,,0.00,0,Wunderground v.1.15,2013-03-01 08:18:00,
2013-03-01 03:23:00,34.9,28.4,29.56,North,5,1.0,4.0,77,0.00,,,0.00,0,Wunderground v.1.15,2013-03-01 08:23:00,
2013-03-01 03:28:00,35.0,28.5,29.56,NNE,13,2.0,12.0,77,0.00,,,0.00,0,Wunderground v.1.15,2013-03-01 08:28:00,
2013-03-01 03:33:00,35.0,28.2,29.56,NNE,20,3.0,14.0,76,0.00,,,0.00,0,Wunderground v.1.15,2013-03-01 08:33:00,
2013-03-01 03:38:00,35.2,28.4,29.57,NNE,20,7.0,14.0,76,0.00,,,0.00,0,Wunderground v.1.15,2013-03-01 08:38:00,
2013-03-01 03:43:00,35.4,28.6,29.56,NNW,346,6.0,11.0,76,0.00,,,0.00,0,Wunderground v.1.15,2013-03-01 08:43:00,
2013-03-01 03:48:00,35.4,28.3,29.56,North,5,5.0,11.0,75,0.00,,,0.00,0,Wunderground v.1.15,2013-03-01 08:48:00,
2013-03-01 03:53:00,35.4,28.3,29.57,NNW,347,12.0,12.0,75,0.00,,,0.00,0,Wunderground v.1.15,2013-03-01 08:53:00,
2013-03-01 03:58:00,35.4,28.3,29.57,NNE,30,2.0,12.0,75,0.00,,,0.00,0,Wunderground v.1.15,2013-03-01 08:58:00,
2013-03-01 04:03:00,35.3,28.2,29.57,NNE,23,7.0,9.0,75,0.00,,,0.00,0,Wunderground v.1.15,2013-03-01 09:03:00,
2013-03-01 04:08:00,35.2,28.1,29.57,NNW,342,16.0,16.0,75,0.00,,,0.00,0,Wunderground v.1.15,2013-03-01 09:08:00,
2013-03-01 04:13:00,35.3,27.8,29.57,NNE,21,8.0,13.0,74,0.00,,,0.00,0,Wunderground v.1.15,2013-03-01 09:13:00,
2013-03-01 04:18:00,35.3,27.8,29.58,NE,34,2.0,13.0,74,0.00,,,0.00,0,Wunderground v.1.15,2013-03-01 09:18:00,
2013-03-01 04:23:00,35.3,27.8,29.58,ENE,73,1.0,6.0,74,0.00,,,0.00,0,Wunderground v.1.15,2013-03-01 09:23:00,
2013-03-01 04:28:00,35.3,27.8,29.58,North,355,2.0,7.0,74,0.00,,,0.00,0,Wunderground v.1.15,2013-03-01 09:28:00,
2013-03-01 04:33:00,35.2,27.7,29.58,ENE,76,0.0,4.0,74,0.00,,,0.00,0,Wunderground v.1.15,2013-03-01 09:33:00,
2013-03-01 04:38:00,35.1,27.6,29.58,NE,46,4.0,7.0,74,0.00,,,0.00,0,Wunderground v.1.15,2013-03-01 09:38:00,
2013-03-01 04:43:00,35.1,27.6,29.58,NE,37,2.0,8.0,74,0.00,,,0.00,0,Wunderground v.1.15,2013-03-01 09:43:00,
2013-03-01 04:48:00,35.1,28.0,29.58,NNE,31,3.0,8.0,75,0.00,,,0.00,0,Wunderground v.1.15,2013-03-01 09:48:00,
2013-03-01 04:53:00,35.0,27.9,29.58,NE,50,0.0,5.0,75,0.00,,,0.00,0,Wunderground v.1.15,2013-03-01 09:53:00,
2013-03-01 04:58:00,34.8,27.7,29.58,NE,50,0.0,5.0,75,0.00,,,0.00,0,Wunderground v.1.15,2013-03-01 09:58:00,
2013-03-01 05:03:00,34.6,27.5,29.58,NE,50,0.0,5.0,75,0.00,,,0.00,0,Wunderground v.1.15,2013-03-01 10:03:00,
2013-03-01 05:08:00,34.3,27.5,29.58,NE,50,0.0,5.0,76,0.00,,,0.00,0,Wunderground v.1.15,2013-03-01 10:08:00,
2013-03-01 05:13:00,34.0,27.5,29.58,NE,50,0.0,3.0,77,0.00,,,0.00,0,Wunderground v.1.15,2013-03-01 10:13:00,
2013-03-01 05:18:00,33.5,27.4,29.58,NE,50,1.0,3.0,78,0.00,,,0.00,0,Wunderground v.1.15,2013-03-01 10:18:00,
2013-03-01 05:23:00,33.1,27.3,29.58,NE,50,2.0,4.0,79,0.00,,,0.00,0,Wunderground v.1.15,2013-03-01 10:23:00,
2013-03-01 05:28:00,32.8,27.3,29.58,NE,50,3.0,4.0,80,0.00,,,0.00,0,Wunderground v.1.15,2013-03-01 10:28:00,
2013-03-01 05:33:00,32.6,27.4,29.58,NE,50,1.0,2.0,81,0.00,,,0.00,0,Wunderground v.1.15,2013-03-01 10:33:00,
2013-03-01 05:38:00,32.3,27.1,29.58,NE,50,0.0,3.0,81,0.00,,,0.00,0,Wunderground v.1.15,2013-03-01 10:38:00,
2013-03-01 05:43:00,32.1,27.2,29.59,NE,50,0.0,3.0,82,0.00,,,0.00,0,Wunderground v.1.15,2013-03-01 10:43:00,
2013-03-01 05:48:00,32.0,27.1,29.59,NE,48,0.0,3.0,82,0.00,,,0.00,0,Wunderground v.1.15,2013-03-01 10:48:00,
2013-03-01 05:53:00,31.9,27.3,29.59,NE,48,1.0,2.0,83,0.00,,,0.00,0,Wunderground v.1.15,2013-03-01 10:53:00,
2013-03-01 05:58:00,31.9,27.3,29.60,NE,48,0.0,2.0,83,0.00,,,0.00,0,Wunderground v.1.15,2013-03-01 10:58:00,
2013-03-01 06:03:00,32.0,27.4,29.59,NE,48,1.0,2.0,83,0.00,,,0.00,0,Wunderground v.1.15,2013-03-01 11:03:00,
2013-03-01 06:08:00,32.2,27.6,29.59,NE,48,3.0,4.0,83,0.00,,,0.00,0,Wunderground v.1.15,2013-03-01 11:08:00,
2013-03-01 06:13:00,32.6,27.7,29.59,NE,48,0.0,2.0,82,0.00,,,0.00,0,Wunderground v.1.15,2013-03-01 11:13:00,
2013-03-01 06:18:00,32.8,27.9,29.59,NE,48,2.0,5.0,82,0.00,,,0.00,0,Wunderground v.1.15,2013-03-01 11:18:00,
2013-03-01 06:24:00,33.2,28.0,29.59,NE,39,3.0,5.0,81,0.00,,,0.00,0,Wunderground v.1.15,2013-03-01 11:24:00,
2013-03-01 06:29:00,33.5,28.0,29.59,NNE,15,5.0,7.0,80,0.00,,,0.00,0,Wunderground v.1.15,2013-03-01 11:29:00,
2013-03-01 06:34:00,33.8,28.0,29.60,NNE,15,2.0,6.0,79,0.00,,,0.00,0,Wunderground v.1.15,2013-03-01 11:34:00,
2013-03-01 06:39:00,34.0,28.2,29.60,NNE,31,3.0,7.0,79,0.00,,,0.00,5,Wunderground v.1.15,2013-03-01 11:39:00,
2013-03-01 06:44:00,34.2,28.4,29.60,NNE,28,3.0,6.0,79,0.00,,,0.00,5,Wunderground v.1.15,2013-03-01 11:44:00,
2013-03-01 06:49:00,34.4,28.2,29.60,NNE,29,3.0,10.0,78,0.00,,,0.00,9,Wunderground v.1.15,2013-03-01 11:49:00,
2013-03-01 06:54:00,34.6,28.4,29.60,NNE,26,0.0,7.0,78,0.00,,,0.00,12,Wunderground v.1.15,2013-03-01 11:54:00,
2013-03-01 06:59:00,34.6,28.4,29.60,NE,35,0.0,7.0,78,0.00,,,0.00,14,Wunderground v.1.15,2013-03-01 11:59:00,
2013-03-01 07:04:00,34.7,28.2,29.60,NE,34,1.0,8.0,77,0.00,,,0.00,19,Wunderground v.1.15,2013-03-01 12:04:00,
2013-03-01 07:09:00,34.8,28.3,29.60,NNE,13,3.0,12.0,77,0.00,,,0.00,21,Wunderground v.1.15,2013-03-01 12:09:00,
2013-03-01 07:14:00,35.0,28.5,29.60,NNE,26,2.0,6.0,77,0.00,,,0.00,26,Wunderground v.1.15,2013-03-01 12:14:00,
2013-03-01 07:19:00,35.0,28.5,29.61,NNE,28,3.0,8.0,77,0.00,,,0.00,32,Wunderground v.1.15,2013-03-01 12:19:00,
2013-03-01 07:24:00,35.1,28.6,29.61,NNE,28,4.0,5.0,77,0.00,,,0.00,37,Wunderground v.1.15,2013-03-01 12:24:00,
2013-03-01 07:29:00,35.2,28.7,29.61,NNE,32,4.0,7.0,77,0.00,,,0.00,46,Wunderground v.1.15,2013-03-01 12:29:00,
2013-03-01 07:34:00,35.3,28.8,29.61,NNE,15,1.0,8.0,77,0.00,,,0.00,60,Wunderground v.1.15,2013-03-01 12:34:00,
2013-03-01 07:39:00,35.6,29.1,29.61,NNW,336,5.0,8.0,77,0.00,,,0.00,63,Wunderground v.1.15,2013-03-01 12:39:00,
2013-03-01 07:44:00,35.7,29.2,29.62,North,5,4.0,5.0,77,0.00,,,0.00,69,Wunderground v.1.15,2013-03-01 12:44:00,
2013-03-01 07:49:00,35.9,29.4,29.62,NNW,348,4.0,8.0,77,0.00,,,0.00,72,Wunderground v.1.15,2013-03-01 12:49:00,
2013-03-01 07:54:00,36.0,29.5,29.62,NNW,338,1.0,6.0,77,0.00,,,0.00,74,Wunderground v.1.15,2013-03-01 12:54:00,
2013-03-01 07:59:00,36.2,29.4,29.62,North,350,5.0,7.0,76,0.00,,,0.00,86,Wunderground v.1.15,2013-03-01 12:59:00,
2013-03-01 08:04:00,36.4,29.6,29.62,NNE,26,5.0,12.0,76,0.00,,,0.00,91,Wunderground v.1.15,2013-03-01 13:04:00,
2013-03-01 08:09:00,36.7,29.5,29.62,NNW,332,2.0,12.0,75,0.00,,,0.00,93,Wunderground v.1.15,2013-03-01 13:09:00,
2013-03-01 08:14:00,36.9,29.4,29.62,NNE,32,8.0,14.0,74,0.00,,,0.00,88,Wunderground v.1.15,2013-03-01 13:14:00,
2013-03-01 08:19:00,37.1,29.2,29.62,NE,40,14.0,14.0,73,0.00,,,0.00,84,Wunderground v.1.15,2013-03-01 13:19:00,
2013-03-01 08:24:00,37.2,29.3,29.62,NNE,24,5.0,13.0,73,0.00,,,0.00,88,Wunderground v.1.15,2013-03-01 13:24:00,
2013-03-01 08:29:00,37.3,29.4,29.63,NNE,24,6.0,13.0,73,0.00,,,0.00,95,Wunderground v.1.15,2013-03-01 13:29:00,
2013-03-01 08:34:00,37.3,29.4,29.63,NNE,22,7.0,13.0,73,0.00,,,0.00,98,Wunderground v.1.15,2013-03-01 13:34:00,
2013-03-01 08:39:00,37.4,29.5,29.63,North,360,3.0,13.0,73,0.00,,,0.00,107,Wunderground v.1.15,2013-03-01 13:39:00,
2013-03-01 08:44:00,37.5,29.3,29.63,West,275,4.0,9.0,72,0.00,,,0.00,120,Wunderground v.1.15,2013-03-01 13:44:00,
2013-03-01 08:49:00,37.6,29.4,29.63,NW,322,4.0,12.0,72,0.00,,,0.00,128,Wunderground v.1.15,2013-03-01 13:49:00,
2013-03-01 08:54:00,37.7,29.5,29.63,NNW,333,9.0,9.0,72,0.00,,,0.00,130,Wunderground v.1.15,2013-03-01 13:54:00,
2013-03-01 08:59:00,37.7,29.8,29.63,NW,321,12.0,12.0,73,0.00,,,0.00,128,Wunderground v.1.15,2013-03-01 13:59:00,
2013-03-01 09:04:00,37.6,29.7,29.63,NNW,343,4.0,14.0,73,0.00,,,0.00,137,Wunderground v.1.15,2013-03-01 14:04:00,
2013-03-01 09:09:00,37.6,29.7,29.63,NNW,346,9.0,14.0,73,0.00,,,0.00,128,Wunderground v.1.15,2013-03-01 14:09:00,
2013-03-01 09:15:00,37.6,30.1,29.63,NE,36,9.0,18.0,74,0.00,,,0.00,130,Wunderground v.1.15,2013-03-01 14:15:00,
2013-03-01 09:20:00,37.5,30.0,29.64,North,5,9.0,9.0,74,0.00,,,0.00,206,Wunderground v.1.15,2013-03-01 14:20:00,
2013-03-01 09:25:00,37.4,30.2,29.63,North,5,6.0,11.0,75,0.00,,,0.00,241,Wunderground v.1.15,2013-03-01 14:25:00,
2013-03-01 09:30:00,37.6,30.4,29.63,NNE,14,4.0,6.0,75,0.00,,,0.00,246,Wunderground v.1.15,2013-03-01 14:30:00,
2013-03-01 09:35:00,37.6,30.1,29.63,NW,317,10.0,14.0,74,0.00,,,0.00,199,Wunderground v.1.15,2013-03-01 14:35:00,
2013-03-01 09:40:00,37.7,30.2,29.63,North,360,3.0,7.0,74,0.00,,,0.00,174,Wunderground v.1.15,2013-03-01 14:40:00,
2013-03-01 09:45:00,37.8,30.3,29.63,North,355,4.0,11.0,74,0.00,,,0.00,200,Wunderground v.1.15,2013-03-01 14:45:00,
2013-03-01 09:50:00,37.8,29.9,29.63,North,360,8.0,9.0,73,0.00,,,0.00,149,Wunderground v.1.15,2013-03-01 14:50:00,
2013-03-01 09:55:00,37.8,29.6,29.63,NW,317,8.0,15.0,72,0.00,,,0.00,309,Wunderground v.1.15,2013-03-01 14:55:00,
2013-03-01 10:00:00,38.2,30.0,29.63,North,355,6.0,6.0,72,0.00,,,0.00,367,Wunderground v.1.15,2013-03-01 15:00:00,
2013-03-01 10:05:00,38.9,30.3,29.63,NNE,22,5.0,15.0,71,0.00,,,0.00,387,Wunderground v.1.15,2013-03-01 15:05:00,
2013-03-01 10:10:00,39.2,29.9,29.64,North,360,2.0,7.0,69,0.00,,,0.00,288,Wunderground v.1.15,2013-03-01 15:10:00,
2013-03-01 10:15:00,39.2,29.9,29.64,North,360,7.0,12.0,69,0.00,,,0.00,264,Wunderground v.1.15,2013-03-01 15:15:00,
2013-03-01 10:20:00,39.1,29.8,29.64,WNW,302,7.0,11.0,69,0.00,,,0.00,439,Wunderground v.1.15,2013-03-01 15:20:00,
2013-03-01 10:25:00,39.1,29.8,29.64,NNE,16,5.0,12.0,69,0.00,,,0.00,295,Wunderground v.1.15,2013-03-01 15:25:00,
2013-03-01 10:30:00,39.2,29.9,29.64,NW,326,4.0,6.0,69,0.00,,,0.00,279,Wunderground v.1.15,2013-03-01 15:30:00,
2013-03-01 10:34:00,39.3,30.0,29.64,North,0,7.0,-999.0,69,0.00,,,0.00,325,Wunderground v.1.15,2013-03-01 15:34:00,
2013-03-01 10:35:00,39.3,29.3,29.64,North,9,9.0,16.0,67,0.00,,,0.00,216,Wunderground v.1.15,2013-03-01 15:35:00,
2013-03-01 10:39:00,39.3,30.0,29.64,North,0,7.0,-999.0,69,0.00,,,0.00,325,Wunderground v.1.15,2013-03-01 15:39:00,
2013-03-01 10:40:00,39.2,29.2,29.64,WSW,245,6.0,9.0,67,0.00,,,0.00,272,Wunderground v.1.15,2013-03-01 15:40:00,
2013-03-01 10:44:00,39.3,30.0,29.64,North,0,7.0,-999.0,69,0.00,,,0.00,325,Wunderground v.1.15,2013-03-01 15:44:00,
2013-03-01 10:45:00,39.6,29.9,29.64,NE,40,6.0,12.0,68,0.00,,,0.00,733,Wunderground v.1.15,2013-03-01 15:45:00,
2013-03-01 10:49:00,40.4,28.8,29.64,North,0,8.0,-999.0,63,0.00,,,0.00,501,Wunderground v.1.15,2013-03-01 15:49:00,
2013-03-01 10:50:00,40.1,29.3,29.64,NW,323,8.0,8.0,65,0.00,,,0.00,770,Wunderground v.1.15,2013-03-01 15:50:00,
2013-03-01 10:54:00,40.4,28.8,29.64,North,0,8.0,-999.0,63,0.00,,,0.00,501,Wunderground v.1.15,2013-03-01 15:54:00,
2013-03-01 10:55:00,40.6,29.0,29.64,NNE,19,8.0,17.0,63,0.00,,,0.00,297,Wunderground v.1.15,2013-03-01 15:55:00,
2013-03-01 10:59:00,40.4,28.8,29.64,North,0,8.0,-999.0,63,0.00,,,0.00,501,Wunderground v.1.15,2013-03-01 15:59:00,
2013-03-01 11:00:00,40.4,28.8,29.64,NW,307,17.0,17.0,63,0.00,,,0.00,573,Wunderground v.1.15,2013-03-01 16:00:00,
2013-03-01 11:04:00,40.4,28.8,29.64,North,0,8.0,-999.0,63,0.00,,,0.00,501,Wunderground v.1.15,2013-03-01 16:04:00,
2013-03-01 11:05:00,40.6,28.6,29.64,NE,44,2.0,17.0,62,0.00,,,0.00,346,Wunderground v.1.15,2013-03-01 16:05:00,
2013-03-01 11:09:00,40.4,28.8,29.64,North,0,8.0,-999.0,63,0.00,,,0.00,501,Wunderground v.1.15,2013-03-01 16:09:00,
2013-03-01 11:10:00,40.5,29.3,29.64,North,355,13.0,13.0,64,0.00,,,0.00,362,Wunderground v.1.15,2013-03-01 16:10:00,
2013-03-01 11:14:00,40.4,28.8,29.64,North,0,8.0,-999.0,63,0.00,,,0.00,501,Wunderground v.1.15,2013-03-01 16:14:00,
2013-03-01 11:15:00,40.6,29.4,29.64,NW,309,5.0,14.0,64,0.00,,,0.00,367,Wunderground v.1.15,2013-03-01 16:15:00,
2013-03-01 11:19:00,41.4,29.3,29.64,North,0,8.0,-999.0,62,0.00,,,0.00,414,Wunderground v.1.15,2013-03-01 16:19:00,
2013-03-01 11:20:00,40.8,28.8,29.64,NW,325,7.0,11.0,62,0.00,,,0.00,413,Wunderground v.1.15,2013-03-01 16:20:00,
2013-03-01 11:24:00,41.4,29.3,29.64,North,0,8.0,-999.0,62,0.00,,,0.00,414,Wunderground v.1.15,2013-03-01 16:24:00,
2013-03-01 11:25:00,40.7,29.5,29.64,NW,316,6.0,17.0,64,0.00,,,0.00,584,Wunderground v.1.15,2013-03-01 16:25:00,
2013-03-01 11:29:00,41.4,29.3,29.64,North,0,8.0,-999.0,62,0.00,,,0.00,414,Wunderground v.1.15,2013-03-01 16:29:00,
2013-03-01 11:30:00,41.4,29.3,29.64,NNW,327,4.0,9.0,62,0.00,,,0.00,584,Wunderground v.1.15,2013-03-01 16:30:00,
2013-03-01 11:34:00,41.4,29.3,29.64,North,0,8.0,-999.0,62,0.00,,,0.00,414,Wunderground v.1.15,2013-03-01 16:34:00,
2013-03-01 11:35:00,41.6,29.1,29.64,NW,317,13.0,13.0,61,0.00,,,0.00,784,Wunderground v.1.15,2013-03-01 16:35:00,
2013-03-01 11:39:00,41.4,29.3,29.64,North,0,8.0,-999.0,62,0.00,,,0.00,414,Wunderground v.1.15,2013-03-01 16:39:00,
2013-03-01 11:40:00,42.0,30.3,29.64,NNE,17,11.0,13.0,63,0.00,,,0.00,763,Wunderground v.1.15,2013-03-01 16:40:00,
2013-03-01 11:44:00,41.4,29.3,29.64,North,0,8.0,-999.0,62,0.00,,,0.00,414,Wunderground v.1.15,2013-03-01 16:44:00,
2013-03-01 11:45:00,42.0,29.1,29.64,North,5,6.0,17.0,60,0.00,,,0.00,605,Wunderground v.1.15,2013-03-01 16:45:00,
2013-03-01 11:49:00,41.1,28.3,29.64,North,0,9.0,-999.0,60,0.00,,,0.00,622,Wunderground v.1.15,2013-03-01 16:49:00,
2013-03-01 11:50:00,41.6,28.7,29.64,North,11,8.0,9.0,60,0.00,,,0.00,759,Wunderground v.1.15,2013-03-01 16:50:00,
2013-03-01 11:54:00,41.1,28.3,29.64,North,0,9.0,-999.0,60,0.00,,,0.00,622,Wunderground v.1.15,2013-03-01 16:54:00,
2013-03-01 11:55:00,41.4,28.1,29.64,North,11,11.0,20.0,59,0.00,,,0.00,471,Wunderground v.1.15,2013-03-01 16:55:00,
2013-03-01 11:59:00,41.1,28.3,29.64,North,0,9.0,-999.0,60,0.00,,,0.00,622,Wunderground v.1.15,2013-03-01 16:59:00,
2013-03-01 12:00:00,41.1,28.3,29.64,North,355,8.0,12.0,60,0.00,,,0.00,288,Wunderground v.1.15,2013-03-01 17:00:00,
2013-03-01 12:04:00,41.1,28.3,29.64,North,0,9.0,-999.0,60,0.00,,,0.00,622,Wunderground v.1.15,2013-03-01 17:04:00,
2013-03-01 12:05:00,40.9,28.1,29.64,North,5,9.0,17.0,60,0.00,,,0.00,237,Wunderground v.1.15,2013-03-01 17:05:00,
2013-03-01 12:09:00,41.1,28.3,29.64,North,0,9.0,-999.0,60,0.00,,,0.00,622,Wunderground v.1.15,2013-03-01 17:09:00,
2013-03-01 12:10:00,40.8,28.4,29.64,North,9,8.0,9.0,61,0.00,,,0.00,142,Wunderground v.1.15,2013-03-01 17:10:00,
2013-03-01 12:14:00,41.1,28.3,29.64,North,0,9.0,-999.0,60,0.00,,,0.00,622,Wunderground v.1.15,2013-03-01 17:14:00,
2013-03-01 12:15:00,40.6,28.6,29.64,NNE,26,2.0,13.0,62,0.00,,,0.00,162,Wunderground v.1.15,2013-03-01 17:15:00,
2013-03-01 12:19:00,40.0,28.8,29.64,NNW,338,8.0,-999.0,64,0.00,,,0.00,220,Wunderground v.1.15,2013-03-01 17:19:00,
2013-03-01 12:20:00,40.5,28.5,29.64,NNW,332,4.0,9.0,62,0.00,,,0.00,207,Wunderground v.1.15,2013-03-01 17:20:00,
2013-03-01 12:24:00,40.0,28.8,29.64,NNW,338,8.0,-999.0,64,0.00,,,0.00,220,Wunderground v.1.15,2013-03-01 17:24:00,
2013-03-01 12:25:00,40.2,28.6,29.64,North,355,5.0,18.0,63,0.00,,,0.00,269,Wunderground v.1.15,2013-03-01 17:25:00,
2013-03-01 12:29:00,40.0,28.8,29.64,NNW,338,8.0,-999.0,64,0.00,,,0.00,220,Wunderground v.1.15,2013-03-01 17:29:00,
2013-03-01 12:30:00,40.0,28.8,29.64,NNE,31,3.0,9.0,64,0.00,,,0.00,313,Wunderground v.1.15,2013-03-01 17:30:00,
2013-03-01 12:34:00,40.0,28.8,29.64,NNW,338,8.0,-999.0,64,0.00,,,0.00,220,Wunderground v.1.15,2013-03-01 17:34:00,
2013-03-01 12:35:00,40.0,28.8,29.64,North,9,9.0,14.0,64,0.00,,,0.00,338,Wunderground v.1.15,2013-03-01 17:35:00,
2013-03-01 12:39:00,40.0,28.8,29.64,NNW,338,8.0,-999.0,64,0.00,,,0.00,220,Wunderground v.1.15,2013-03-01 17:39:00,
2013-03-01 12:40:00,40.1,28.9,29.64,NNW,339,10.0,10.0,64,0.00,,,0.00,385,Wunderground v.1.15,2013-03-01 17:40:00,
2013-03-01 12:44:00,40.0,28.8,29.64,NNW,338,8.0,-999.0,64,0.00,,,0.00,220,Wunderground v.1.15,2013-03-01 17:44:00,
2013-03-01 12:45:00,40.3,29.1,29.64,West,281,0.0,14.0,64,0.00,,,0.00,204,Wunderground v.1.15,2013-03-01 17:45:00,
2013-03-01 12:49:00,40.2,27.8,29.63,North,0,6.0,-999.0,61,0.00,,,0.00,244,Wunderground v.1.15,2013-03-01 17:49:00,
2013-03-01 12:50:00,40.6,28.6,29.64,NNE,17,3.0,10.0,62,0.00,,,0.00,114,Wunderground v.1.15,2013-03-01 17:50:00,
2013-03-01 12:54:00,40.2,27.8,29.63,North,0,6.0,-999.0,61,0.00,,,0.00,244,Wunderground v.1.15,2013-03-01 17:54:00,
2013-03-01 12:55:00,40.3,28.3,29.63,NNE,22,5.0,14.0,62,0.00,,,0.00,169,Wunderground v.1.15,2013-03-01 17:55:00,
2013-03-01 12:59:00,40.2,27.8,29.63,North,0,6.0,-999.0,61,0.00,,,0.00,244,Wunderground v.1.15,2013-03-01 17:59:00,
2013-03-01 13:01:00,40.2,27.8,29.63,North,351,8.0,12.0,61,0.00,,,0.00,174,Wunderground v.1.15,2013-03-01 18:01:00,
2013-03-01 13:04:00,40.2,27.8,29.63,North,0,6.0,-999.0,61,0.00,,,0.00,244,Wunderground v.1.15,2013-03-01 18:04:00,
2013-03-01 13:06:00,40.1,27.7,29.63,North,351,6.0,17.0,61,0.00,,,0.00,155,Wunderground v.1.15,2013-03-01 18:06:00,
2013-03-01 13:09:00,40.2,27.8,29.63,North,0,6.0,-999.0,61,0.00,,,0.00,244,Wunderground v.1.15,2013-03-01 18:09:00,
2013-03-01 13:11:00,40.2,28.2,29.63,NNE,26,5.0,8.0,62,0.00,,,0.00,114,Wunderground v.1.15,2013-03-01 18:11:00,
2013-03-01 13:14:00,40.2,27.8,29.63,North,0,6.0,-999.0,61,0.00,,,0.00,244,Wunderground v.1.15,2013-03-01 18:14:00,
2013-03-01 13:16:00,40.2,27.8,29.63,NW,309,6.0,11.0,61,0.00,,,0.00,74,Wunderground v.1.15,2013-03-01 18:16:00,
2013-03-01 13:19:00,40.2,27.4,29.63,NW,315,6.0,-999.0,60,0.00,,,0.00,95,Wunderground v.1.15,2013-03-01 18:19:00,
2013-03-01 13:21:00,40.2,27.8,29.63,North,5,8.0,9.0,61,0.00,,,0.00,63,Wunderground v.1.15,2013-03-01 18:21:00,
2013-03-01 13:24:00,40.2,27.4,29.63,NW,315,6.0,-999.0,60,0.00,,,0.00,95,Wunderground v.1.15,2013-03-01 18:24:00,
2013-03-01 13:26:00,40.2,27.8,29.63,NW,317,4.0,13.0,61,0.00,,,0.00,63,Wunderground v.1.15,2013-03-01 18:26:00,
2013-03-01 13:29:00,40.2,27.4,29.63,NW,315,6.0,-999.0,60,0.00,,,0.00,95,Wunderground v.1.15,2013-03-01 18:29:00,
2013-03-01 13:31:00,40.2,27.8,29.63,NNE,15,4.0,6.0,61,0.00,,,0.00,56,Wunderground v.1.15,2013-03-01 18:31:00,
2013-03-01 13:34:00,40.2,27.4,29.63,NW,315,6.0,-999.0,60,0.00,,,0.00,95,Wunderground v.1.15,2013-03-01 18:34:00,
2013-03-01 13:36:00,40.0,27.6,29.63,NNE,26,3.0,11.0,61,0.00,,,0.00,53,Wunderground v.1.15,2013-03-01 18:36:00,
2013-03-01 13:39:00,40.2,27.4,29.63,NW,315,6.0,-999.0,60,0.00,,,0.00,95,Wunderground v.1.15,2013-03-01 18:39:00,
2013-03-01 13:41:00,39.8,27.4,29.63,North,355,9.0,9.0,61,0.00,,,0.00,54,Wunderground v.1.15,2013-03-01 18:41:00,
2013-03-01 13:44:00,40.2,27.4,29.63,NW,315,6.0,-999.0,60,0.00,,,0.00,95,Wunderground v.1.15,2013-03-01 18:44:00,
2013-03-01 13:46:00,39.7,27.7,29.63,NNW,335,8.0,14.0,62,0.00,,,0.00,79,Wunderground v.1.15,2013-03-01 18:46:00,
2013-03-01 13:49:00,39.5,27.2,29.63,North,0,7.0,-999.0,61,0.00,,,0.00,74,Wunderground v.1.15,2013-03-01 18:49:00,
2013-03-01 13:51:00,39.5,28.7,29.64,West,263,4.0,9.0,65,0.00,,,0.00,102,Wunderground v.1.15,2013-03-01 18:51:00,
2013-03-01 13:54:00,39.5,27.2,29.63,North,0,7.0,-999.0,61,0.00,,,0.00,74,Wunderground v.1.15,2013-03-01 18:54:00,
2013-03-01 13:56:00,39.5,27.5,29.63,North,5,8.0,17.0,62,0.00,,,0.00,88,Wunderground v.1.15,2013-03-01 18:56:00,
2013-03-01 13:59:00,39.5,27.2,29.63,North,0,7.0,-999.0,61,0.00,,,0.00,74,Wunderground v.1.15,2013-03-01 18:59:00,
2013-03-01 14:01:00,39.5,27.2,29.63,NW,317,15.0,15.0,61,0.00,,,0.00,74,Wunderground v.1.15,2013-03-01 19:01:00,
2013-03-01 14:04:00,39.5,27.2,29.63,North,0,7.0,-999.0,61,0.00,,,0.00,74,Wunderground v.1.15,2013-03-01 19:04:00,
2013-03-01 14:06:00,39.5,27.2,29.64,NNE,30,3.0,15.0,61,0.00,,,0.00,95,Wunderground v.1.15,2013-03-01 19:06:00,
2013-03-01 14:09:00,39.5,27.2,29.63,North,0,7.0,-999.0,61,0.00,,,0.00,74,Wunderground v.1.15,2013-03-01 19:09:00,
2013-03-01 14:11:00,39.5,27.5,29.64,NNW,344,7.0,12.0,62,0.00,,,0.00,123,Wunderground v.1.15,2013-03-01 19:11:00,
2013-03-01 14:14:00,39.5,27.2,29.63,North,0,7.0,-999.0,61,0.00,,,0.00,74,Wunderground v.1.15,2013-03-01 19:14:00,
2013-03-01 14:16:00,39.6,27.2,29.63,North,360,4.0,12.0,61,0.00,,,0.00,135,Wunderground v.1.15,2013-03-01 19:16:00,
2013-03-01 14:19:00,39.8,27.0,29.63,North,0,6.0,-999.0,60,0.00,,,0.00,110,Wunderground v.1.15,2013-03-01 19:19:00,
2013-03-01 14:21:00,39.7,27.3,29.64,NNE,13,2.0,10.0,61,0.00,,,0.00,102,Wunderground v.1.15,2013-03-01 19:21:00,
2013-03-01 14:24:00,39.8,27.0,29.63,North,0,6.0,-999.0,60,0.00,,,0.00,110,Wunderground v.1.15,2013-03-01 19:24:00,
2013-03-01 14:26:00,39.8,27.0,29.64,NNE,12,10.0,11.0,60,0.00,,,0.00,109,Wunderground v.1.15,2013-03-01 19:26:00,
2013-03-01 14:29:00,39.8,27.0,29.63,North,0,6.0,-999.0,60,0.00,,,0.00,110,Wunderground v.1.15,2013-03-01 19:29:00,
2013-03-01 14:31:00,39.8,27.0,29.64,NW,324,11.0,11.0,60,0.00,,,0.00,107,Wunderground v.1.15,2013-03-01 19:31:00,
2013-03-01 14:34:00,39.8,27.0,29.63,North,0,6.0,-999.0,60,0.00,,,0.00,110,Wunderground v.1.15,2013-03-01 19:34:00,
2013-03-01 14:36:00,39.8,27.0,29.64,NNW,338,4.0,14.0,60,0.00,,,0.00,88,Wunderground v.1.15,2013-03-01 19:36:00,
2013-03-01 14:39:00,39.8,27.0,29.63,North,0,6.0,-999.0,60,0.00,,,0.00,110,Wunderground v.1.15,2013-03-01 19:39:00,
2013-03-01 14:42:00,39.8,27.4,29.64,North,5,5.0,9.0,61,0.00,,,0.00,120,Wunderground v.1.15,2013-03-01 19:42:00,
2013-03-01 14:44:00,39.8,27.0,29.63,North,0,6.0,-999.0,60,0.00,,,0.00,110,Wunderground v.1.15,2013-03-01 19:44:00,
2013-03-01 14:47:00,39.8,27.4,29.64,NNW,342,4.0,13.0,61,0.00,,,0.00,149,Wunderground v.1.15,2013-03-01 19:47:00,
2013-03-01 14:49:00,39.8,27.8,29.64,NNW,338,7.0,-999.0,62,0.00,,,0.00,113,Wunderground v.1.15,2013-03-01 19:49:00,
2013-03-01 14:52:00,39.8,27.8,29.64,NE,35,2.0,10.0,62,0.00,,,0.00,105,Wunderground v.1.15,2013-03-01 19:52:00,
2013-03-01 14:54:00,39.8,27.8,29.64,NNW,338,7.0,-999.0,62,0.00,,,0.00,113,Wunderground v.1.15,2013-03-01 19:54:00,
2013-03-01 14:57:00,39.8,27.8,29.63,NNW,344,11.0,11.0,62,0.00,,,0.00,120,Wunderground v.1.15,2013-03-01 19:57:00,
2013-03-01 14:59:00,39.8,27.8,29.64,NNW,338,7.0,-999.0,62,0.00,,,0.00,113,Wunderground v.1.15,2013-03-01 19:59:00,
2013-03-01 15:02:00,39.8,27.4,29.64,NNW,342,9.0,10.0,61,0.00,,,0.00,72,Wunderground v.1.15,2013-03-01 20:02:00,
2013-03-01 15:04:00,39.8,27.8,29.64,NNW,338,7.0,-999.0,62,0.00,,,0.00,113,Wunderground v.1.15,2013-03-01 20:04:00,
2013-03-01 15:07:00,39.8,27.4,29.64,North,355,4.0,15.0,61,0.00,,,0.00,63,Wunderground v.1.15,2013-03-01 20:07:00,
2013-03-01 15:09:00,39.8,27.8,29.64,NNW,338,7.0,-999.0,62,0.00,,,0.00,113,Wunderground v.1.15,2013-03-01 20:09:00,
2013-03-01 15:12:00,39.8,27.4,29.64,North,355,8.0,11.0,61,0.00,,,0.00,56,Wunderground v.1.15,2013-03-01 20:12:00,
2013-03-01 15:14:00,39.8,27.8,29.64,NNW,338,7.0,-999.0,62,0.00,,,0.00,113,Wunderground v.1.15,2013-03-01 20:14:00,
2013-03-01 15:17:00,39.7,27.7,29.64,NNE,15,3.0,11.0,62,0.00,,,0.00,47,Wunderground v.1.15,2013-03-01 20:17:00,
2013-03-01 15:19:00,39.5,27.9,29.64,North,0,5.0,-999.0,63,0.00,,,0.00,55,Wunderground v.1.15,2013-03-01 20:19:00,
2013-03-01 15:22:00,39.7,27.7,29.64,NNE,19,2.0,8.0,62,0.00,,,0.00,46,Wunderground v.1.15,2013-03-01 20:22:00,
2013-03-01 15:24:00,39.5,27.9,29.64,North,0,5.0,-999.0,63,0.00,,,0.00,55,Wunderground v.1.15,2013-03-01 20:24:00,
2013-03-01 15:27:00,39.5,28.3,29.64,North,360,7.0,10.0,64,0.00,,,0.00,49,Wunderground v.1.15,2013-03-01 20:27:00,
2013-03-01 15:29:00,39.5,27.9,29.64,North,0,5.0,-999.0,63,0.00,,,0.00,55,Wunderground v.1.15,2013-03-01 20:29:00,
2013-03-01 15:32:00,39.5,27.9,29.64,NNE,31,3.0,7.0,63,0.00,,,0.00,56,Wunderground v.1.15,2013-03-01 20:32:00,
2013-03-01 15:34:00,39.5,27.9,29.64,North,0,5.0,-999.0,63,0.00,,,0.00,55,Wunderground v.1.15,2013-03-01 20:34:00,
2013-03-01 15:37:00,39.5,27.9,29.64,NNE,13,8.0,11.0,63,0.00,,,0.00,53,Wunderground v.1.15,2013-03-01 20:37:00,
2013-03-01 15:39:00,39.5,27.9,29.64,North,0,5.0,-999.0,63,0.00,,,0.00,55,Wunderground v.1.15,2013-03-01 20:39:00,
2013-03-01 15:42:00,39.4,27.8,29.64,NNE,17,11.0,15.0,63,0.00,,,0.00,49,Wunderground v.1.15,2013-03-01 20:42:00,
2013-03-01 15:44:00,39.5,27.9,29.64,North,0,5.0,-999.0,63,0.00,,,0.00,55,Wunderground v.1.15,2013-03-01 20:44:00,
2013-03-01 15:47:00,39.4,27.8,29.64,NW,321,8.0,15.0,63,0.00,,,0.00,63,Wunderground v.1.15,2013-03-01 20:47:00,
2013-03-01 15:49:00,39.4,28.2,29.65,North,0,6.0,-999.0,64,0.00,,,0.00,62,Wunderground v.1.15,2013-03-01 20:49:00,
2013-03-01 15:52:00,39.4,28.6,29.64,NW,319,6.0,10.0,65,0.00,,,0.00,91,Wunderground v.1.15,2013-03-01 20:52:00,
2013-03-01 15:54:00,39.4,28.2,29.65,North,0,6.0,-999.0,64,0.00,,,0.00,62,Wunderground v.1.15,2013-03-01 20:54:00,
2013-03-01 15:57:00,39.4,28.6,29.64,NNE,26,8.0,10.0,65,0.00,,,0.00,76,Wunderground v.1.15,2013-03-01 20:57:00,
2013-03-01 15:59:00,39.4,28.2,29.65,North,0,6.0,-999.0,64,0.00,,,0.00,62,Wunderground v.1.15,2013-03-01 20:59:00,
2013-03-01 16:02:00,39.4,28.2,29.65,West,266,6.0,15.0,64,0.00,,,0.00,33,Wunderground v.1.15,2013-03-01 21:02:00,
2013-03-01 16:04:00,39.4,28.2,29.65,North,0,6.0,-999.0,64,0.00,,,0.00,62,Wunderground v.1.15,2013-03-01 21:04:00,
2013-03-01 16:07:00,39.2,28.8,29.65,NW,317,7.0,20.0,66,0.00,,,0.00,28,Wunderground v.1.15,2013-03-01 21:07:00,
2013-03-01 16:09:00,39.4,28.2,29.65,North,0,6.0,-999.0,64,0.00,,,0.00,62,Wunderground v.1.15,2013-03-01 21:09:00,
2013-03-01 16:12:00,38.9,28.9,29.65,NNW,337,9.0,15.0,67,0.00,,,0.00,47,Wunderground v.1.15,2013-03-01 21:12:00,
2013-03-01 16:14:00,39.4,28.2,29.65,North,0,6.0,-999.0,64,0.00,,,0.00,62,Wunderground v.1.15,2013-03-01 21:14:00,
2013-03-01 16:17:00,38.7,28.7,29.65,NNE,22,4.0,15.0,67,0.00,,,0.00,72,Wunderground v.1.15,2013-03-01 21:17:00,
2013-03-01 16:19:00,38.8,28.4,29.65,North,0,8.0,-999.0,66,0.00,,,0.00,59,Wunderground v.1.15,2013-03-01 21:19:00,
2013-03-01 16:22:00,38.8,28.8,29.65,North,360,6.0,14.0,67,0.00,,,0.00,72,Wunderground v.1.15,2013-03-01 21:22:00,
2013-03-01 16:24:00,38.8,28.4,29.65,North,0,8.0,-999.0,66,0.00,,,0.00,59,Wunderground v.1.15,2013-03-01 21:24:00,
2013-03-01 16:27:00,38.8,28.4,29.65,NNW,346,4.0,14.0,66,0.00,,,0.00,63,Wunderground v.1.15,2013-03-01 21:27:00,
2013-03-01 16:29:00,38.8,28.4,29.65,North,0,8.0,-999.0,66,0.00,,,0.00,59,Wunderground v.1.15,2013-03-01 21:29:00,
2013-03-01 16:32:00,38.8,28.4,29.65,NNW,338,5.0,16.0,66,0.00,,,0.00,32,Wunderground v.1.15,2013-03-01 21:32:00,
2013-03-01 16:34:00,38.8,28.4,29.65,North,0,8.0,-999.0,66,0.00,,,0.00,59,Wunderground v.1.15,2013-03-01 21:34:00,
2013-03-01 16:37:00,38.7,28.7,29.66,NNW,327,8.0,17.0,67,0.00,,,0.00,21,Wunderground v.1.15,2013-03-01 21:37:00,
2013-03-01 16:39:00,38.8,28.4,29.65,North,0,8.0,-999.0,66,0.00,,,0.00,59,Wunderground v.1.15,2013-03-01 21:39:00,
2013-03-01 16:42:00,38.5,28.9,29.66,NNE,22,4.0,12.0,68,0.00,,,0.00,30,Wunderground v.1.15,2013-03-01 21:42:00,
2013-03-01 16:44:00,38.8,28.4,29.65,North,0,8.0,-999.0,66,0.00,,,0.00,59,Wunderground v.1.15,2013-03-01 21:44:00,
2013-03-01 16:47:00,38.3,28.7,29.66,NW,321,1.0,16.0,68,0.00,,,0.00,26,Wunderground v.1.15,2013-03-01 21:47:00,
2013-03-01 16:49:00,37.8,28.9,29.66,North,0,8.0,-999.0,70,0.00,,,0.00,25,Wunderground v.1.15,2013-03-01 21:49:00,
2013-03-01 16:53:00,38.1,28.8,29.66,North,350,11.0,13.0,69,0.00,,,0.00,18,Wunderground v.1.15,2013-03-01 21:53:00,
2013-03-01 16:54:00,37.8,28.9,29.66,North,0,8.0,-999.0,70,0.00,,,0.00,25,Wunderground v.1.15,2013-03-01 21:54:00,
2013-03-01 16:58:00,37.9,28.6,29.66,NNE,22,5.0,13.0,69,0.00,,,0.00,23,Wunderground v.1.15,2013-03-01 21:58:00,
2013-03-01 16:59:00,37.8,28.9,29.66,North,0,8.0,-999.0,70,0.00,,,0.00,25,Wunderground v.1.15,2013-03-01 21:59:00,
2013-03-01 17:03:00,37.8,28.9,29.66,WNW,290,6.0,11.0,70,0.00,,,0.00,18,Wunderground v.1.15,2013-03-01 22:03:00,
2013-03-01 17:04:00,37.8,28.9,29.66,North,0,8.0,-999.0,70,0.00,,,0.00,25,Wunderground v.1.15,2013-03-01 22:04:00,
2013-03-01 17:08:00,37.7,28.8,29.67,North,360,2.0,16.0,70,0.00,,,0.00,18,Wunderground v.1.15,2013-03-01 22:08:00,
2013-03-01 17:09:00,37.8,28.9,29.66,North,0,8.0,-999.0,70,0.00,,,0.00,25,Wunderground v.1.15,2013-03-01 22:09:00,
2013-03-01 17:13:00,37.6,28.7,29.67,NNW,338,10.0,16.0,70,0.00,,,0.00,30,Wunderground v.1.15,2013-03-01 22:13:00,
2013-03-01 17:14:00,37.8,28.9,29.66,North,0,8.0,-999.0,70,0.00,,,0.00,25,Wunderground v.1.15,2013-03-01 22:14:00,
2013-03-01 17:18:00,37.5,28.9,29.67,NW,317,9.0,16.0,71,0.00,,,0.00,16,Wunderground v.1.15,2013-03-01 22:18:00,
2013-03-01 17:19:00,37.2,28.7,29.67,North,0,7.0,-999.0,71,0.00,,,0.00,18,Wunderground v.1.15,2013-03-01 22:19:00,
2013-03-01 17:23:00,37.4,28.5,29.67,North,349,8.0,20.0,70,0.00,,,0.00,12,Wunderground v.1.15,2013-03-01 22:23:00,
2013-03-01 17:24:00,37.2,28.7,29.67,North,0,7.0,-999.0,71,0.00,,,0.00,18,Wunderground v.1.15,2013-03-01 22:24:00,
2013-03-01 17:28:00,37.3,28.8,29.67,North,355,8.0,20.0,71,0.00,,,0.00,14,Wunderground v.1.15,2013-03-01 22:28:00,
2013-03-01 17:29:00,37.2,28.7,29.67,North,0,7.0,-999.0,71,0.00,,,0.00,18,Wunderground v.1.15,2013-03-01 22:29:00,
2013-03-01 17:33:00,37.1,28.6,29.67,NNW,339,6.0,13.0,71,0.00,,,0.00,11,Wunderground v.1.15,2013-03-01 22:33:00,
2013-03-01 17:34:00,37.2,28.7,29.67,North,0,7.0,-999.0,71,0.00,,,0.00,18,Wunderground v.1.15,2013-03-01 22:34:00,
2013-03-01 17:38:00,37.0,28.1,29.68,NNE,24,5.0,16.0,70,0.00,,,0.00,5,Wunderground v.1.15,2013-03-01 22:38:00,
2013-03-01 17:39:00,37.2,28.7,29.67,North,0,7.0,-999.0,71,0.00,,,0.00,18,Wunderground v.1.15,2013-03-01 22:39:00,
2013-03-01 17:43:00,37.0,28.1,29.68,NNW,334,12.0,12.0,70,0.00,,,0.00,0,Wunderground v.1.15,2013-03-01 22:43:00,
2013-03-01 17:44:00,37.2,28.7,29.67,North,0,7.0,-999.0,71,0.00,,,0.00,18,Wunderground v.1.15,2013-03-01 22:44:00,
2013-03-01 17:48:00,36.9,28.4,29.68,NE,35,5.0,12.0,71,0.00,,,0.00,0,Wunderground v.1.15,2013-03-01 22:48:00,
2013-03-01 17:49:00,36.7,28.5,29.68,North,0,7.0,-999.0,72,0.00,,,0.00,3,Wunderground v.1.15,2013-03-01 22:49:00,
2013-03-01 17:53:00,36.8,28.3,29.68,North,355,8.0,12.0,71,0.00,,,0.00,0,Wunderground v.1.15,2013-03-01 22:53:00,
2013-03-01 17:54:00,36.7,28.5,29.68,North,0,7.0,-999.0,72,0.00,,,0.00,3,Wunderground v.1.15,2013-03-01 22:54:00,
2013-03-01 17:58:00,36.8,28.3,29.69,North,360,2.0,13.0,71,0.00,,,0.00,0,Wunderground v.1.15,2013-03-01 22:58:00,
2013-03-01 17:59:00,36.7,28.5,29.68,North,0,7.0,-999.0,72,0.00,,,0.00,3,Wunderground v.1.15,2013-03-01 22:59:00,
2013-03-01 18:03:00,36.6,28.4,29.68,North,360,7.0,11.0,72,0.00,,,0.00,0,Wunderground v.1.15,2013-03-01 23:03:00,
2013-03-01 18:04:00,36.7,28.5,29.68,North,0,7.0,-999.0,72,0.00,,,0.00,3,Wunderground v.1.15,2013-03-01 23:04:00,
2013-03-01 18:08:00,36.5,28.3,29.68,NNW,328,5.0,12.0,72,0.00,,,0.00,0,Wunderground v.1.15,2013-03-01 23:08:00,
2013-03-01 18:09:00,36.7,28.5,29.68,North,0,7.0,-999.0,72,0.00,,,0.00,3,Wunderground v.1.15,2013-03-01 23:09:00,
2013-03-01 18:13:00,36.5,28.3,29.69,North,355,7.0,12.0,72,0.00,,,0.00,0,Wunderground v.1.15,2013-03-01 23:13:00,
2013-03-01 18:14:00,36.7,28.5,29.68,North,0,7.0,-999.0,72,0.00,,,0.00,3,Wunderground v.1.15,2013-03-01 23:14:00,
2013-03-01 18:18:00,36.4,28.2,29.69,NW,322,13.0,13.0,72,0.00,,,0.00,0,Wunderground v.1.15,2013-03-01 23:18:00,
2013-03-01 18:19:00,36.2,28.0,29.70,NNW,338,5.0,-999.0,72,0.00,,,0.00,0,Wunderground v.1.15,2013-03-01 23:19:00,
2013-03-01 18:23:00,36.3,28.1,29.69,North,360,12.0,13.0,72,0.00,,,0.00,0,Wunderground v.1.15,2013-03-01 23:23:00,
2013-03-01 18:24:00,36.2,28.0,29.70,NNW,338,5.0,-999.0,72,0.00,,,0.00,0,Wunderground v.1.15,2013-03-01 23:24:00,
2013-03-01 18:28:00,36.2,28.0,29.70,North,351,0.0,13.0,72,0.00,,,0.00,0,Wunderground v.1.15,2013-03-01 23:28:00,
2013-03-01 18:29:00,36.2,28.0,29.70,NNW,338,5.0,-999.0,72,0.00,,,0.00,0,Wunderground v.1.15,2013-03-01 23:29:00,
2013-03-01 18:33:00,36.2,28.0,29.70,North,349,4.0,7.0,72,0.00,,,0.00,0,Wunderground v.1.15,2013-03-01 23:33:00,
2013-03-01 18:34:00,36.2,28.0,29.70,NNW,338,5.0,-999.0,72,0.00,,,0.00,0,Wunderground v.1.15,2013-03-01 23:34:00,
2013-03-01 18:38:00,36.1,27.9,29.70,NW,315,2.0,13.0,72,0.00,,,0.00,0,Wunderground v.1.15,2013-03-01 23:38:00,
2013-03-01 18:39:00,36.2,28.0,29.70,NNW,338,5.0,-999.0,72,0.00,,,0.00,0,Wunderground v.1.15,2013-03-01 23:39:00,
2013-03-01 18:43:00,36.1,27.6,29.70,NNW,343,8.0,13.0,71,0.00,,,0.00,0,Wunderground v.1.15,2013-03-01 23:43:00,
2013-03-01 18:44:00,36.2,28.0,29.70,NNW,338,5.0,-999.0,72,0.00,,,0.00,0,Wunderground v.1.15,2013-03-01 23:44:00,
2013-03-01 18:48:00,36.0,27.5,29.70,NNW,348,7.0,15.0,71,0.00,,,0.00,0,Wunderground v.1.15,2013-03-01 23:48:00,
2013-03-01 18:49:00,35.8,27.3,29.70,North,0,6.0,-999.0,71,0.00,,,0.00,0,Wunderground v.1.15,2013-03-01 23:49:00,
2013-03-01 18:53:00,35.9,27.4,29.70,North,360,5.0,17.0,71,0.00,,,0.00,0,Wunderground v.1.15,2013-03-01 23:53:00,
2013-03-01 18:54:00,35.8,27.3,29.70,North,0,6.0,-999.0,71,0.00,,,0.00,0,Wunderground v.1.15,2013-03-01 23:54:00,
2013-03-01 18:58:00,35.9,27.7,29.71,North,9,3.0,17.0,72,0.00,,,0.00,0,Wunderground v.1.15,2013-03-01 23:58:00,
2013-03-01 18:59:00,35.8,27.3,29.70,North,0,6.0,-999.0,71,0.00,,,0.00,0,Wunderground v.1.15,2013-03-01 23:59:00,
2013-03-01 19:03:00,35.7,27.2,29.71,North,5,6.0,16.0,71,0.00,,,0.00,0,Wunderground v.1.15,2013-03-02 00:03:00,
2013-03-01 19:04:00,35.8,27.3,29.70,North,0,6.0,-999.0,71,0.00,,,0.00,0,Wunderground v.1.15,2013-03-02 00:04:00,
2013-03-01 19:08:00,35.6,27.1,29.71,NNW,335,2.0,20.0,71,0.00,,,0.00,0,Wunderground v.1.15,2013-03-02 00:08:00,
2013-03-01 19:09:00,35.8,27.3,29.70,North,0,6.0,-999.0,71,0.00,,,0.00,0,Wunderground v.1.15,2013-03-02 00:09:00,
2013-03-01 19:13:00,35.6,27.1,29.71,North,351,13.0,15.0,71,0.00,,,0.00,0,Wunderground v.1.15,2013-03-02 00:13:00,
2013-03-01 19:14:00,35.8,27.3,29.70,North,0,6.0,-999.0,71,0.00,,,0.00,0,Wunderground v.1.15,2013-03-02 00:14:00,
2013-03-01 19:18:00,35.4,26.6,29.71,NE,40,9.0,18.0,70,0.00,,,0.00,0,Wunderground v.1.15,2013-03-02 00:18:00,
2013-03-01 19:19:00,35.1,26.6,29.71,North,0,9.0,-999.0,71,0.00,,,0.00,0,Wunderground v.1.15,2013-03-02 00:19:00,
2013-03-01 19:24:00,35.3,26.8,29.71,North,350,13.0,16.0,71,0.00,,,0.00,0,Wunderground v.1.15,2013-03-02 00:24:00,
2013-03-01 19:29:00,35.2,26.7,29.71,ESE,109,4.0,17.0,71,0.00,,,0.00,0,Wunderground v.1.15,2013-03-02 00:29:00,
2013-03-01 19:34:00,35.1,26.6,29.71,North,360,5.0,14.0,71,0.00,,,0.00,0,Wunderground v.1.15,2013-03-02 00:34:00,
2013-03-01 19:39:00,35.0,26.5,29.71,NNW,344,11.0,17.0,71,0.00,,,0.00,0,Wunderground v.1.15,2013-03-02 00:39:00,
2013-03-01 19:44:00,34.9,26.4,29.72,NE,38,10.0,21.0,71,0.00,,,0.00,0,Wunderground v.1.15,2013-03-02 00:44:00,
2013-03-01 19:49:00,34.8,26.4,29.72,NNE,13,8.0,21.0,71,0.00,,,0.00,0,Wunderground v.1.15,2013-03-02 00:49:00,
2013-03-01 19:54:00,34.7,26.3,29.72,North,355,8.0,26.0,71,0.00,,,0.00,0,Wunderground v.1.15,2013-03-02 00:54:00,
2013-03-01 19:59:00,34.6,26.5,29.72,NNW,338,10.0,26.0,72,0.00,,,0.00,0,Wunderground v.1.15,2013-03-02 00:59:00,
2013-03-01 20:04:00,34.5,26.4,29.72,NNW,347,9.0,13.0,72,0.00,,,0.00,0,Wunderground v.1.15,2013-03-02 01:04:00,
2013-03-01 20:09:00,34.4,26.3,29.72,NNW,338,15.0,18.0,72,0.00,,,0.00,0,Wunderground v.1.15,2013-03-02 01:09:00,
2013-03-01 20:14:00,34.3,26.2,29.72,North,360,11.0,18.0,72,0.00,,,0.00,0,Wunderground v.1.15,2013-03-02 01:14:00,
2013-03-01 20:19:00,34.3,26.2,29.72,NW,304,8.0,18.0,72,0.00,,,0.00,0,Wunderground v.1.15,2013-03-02 01:19:00,
2013-03-01 20:24:00,34.2,26.1,29.72,NNW,340,5.0,17.0,72,0.00,,,0.00,0,Wunderground v.1.15,2013-03-02 01:24:00,
2013-03-01 20:29:00,34.1,26.0,29.73,NW,304,13.0,18.0,72,0.00,,,0.00,0,Wunderground v.1.15,2013-03-02 01:29:00,
2013-03-01 20:34:00,34.0,25.9,29.73,NW,304,7.0,14.0,72,0.00,,,0.00,0,Wunderground v.1.15,2013-03-02 01:34:00,
2013-03-01 20:39:00,33.9,25.8,29.73,NNW,336,10.0,19.0,72,0.00,,,0.00,0,Wunderground v.1.15,2013-03-02 01:39:00,
2013-03-01 20:44:00,33.9,26.2,29.73,WNW,286,9.0,13.0,73,0.00,,,0.00,0,Wunderground v.1.15,2013-03-02 01:44:00,
2013-03-01 20:49:00,33.6,25.9,29.73,NNW,338,6.0,-999.0,73,0.00,,,0.00,0,Wunderground v.1.15,2013-03-02 01:49:00,
2013-03-01 20:50:00,33.8,26.1,29.73,North,5,6.0,7.0,73,0.00,,,0.00,0,Wunderground v.1.15,2013-03-02 01:50:00,
2013-03-01 20:54:00,33.6,25.9,29.73,NNW,338,6.0,-999.0,73,0.00,,,0.00,0,Wunderground v.1.15,2013-03-02 01:54:00,
2013-03-01 20:55:00,33.7,25.6,29.73,NNW,338,4.0,12.0,72,0.00,,,0.00,0,Wunderground v.1.15,2013-03-02 01:55:00,
2013-03-01 20:59:00,33.6,25.9,29.73,NNW,338,6.0,-999.0,73,0.00,,,0.00,0,Wunderground v.1.15,2013-03-02 01:59:00,
2013-03-01 21:00:00,33.6,25.9,29.73,North,5,7.0,7.0,73,0.00,,,0.00,0,Wunderground v.1.15,2013-03-02 02:00:00,
2013-03-01 21:04:00,33.6,25.9,29.73,NNW,338,6.0,-999.0,73,0.00,,,0.00,0,Wunderground v.1.15,2013-03-02 02:04:00,
2013-03-01 21:05:00,33.5,25.8,29.73,NW,323,6.0,10.0,73,0.00,,,0.00,0,Wunderground v.1.15,2013-03-02 02:05:00,
2013-03-01 21:09:00,33.6,25.9,29.73,NNW,338,6.0,-999.0,73,0.00,,,0.00,0,Wunderground v.1.15,2013-03-02 02:09:00,
2013-03-01 21:10:00,33.4,25.3,29.73,North,10,11.0,11.0,72,0.00,,,0.00,0,Wunderground v.1.15,2013-03-02 02:10:00,
2013-03-01 21:14:00,33.6,25.9,29.73,NNW,338,6.0,-999.0,73,0.00,,,0.00,0,Wunderground v.1.15,2013-03-02 02:14:00,
2013-03-01 21:15:00,33.3,25.2,29.73,NNW,339,5.0,16.0,72,0.00,,,0.00,0,Wunderground v.1.15,2013-03-02 02:15:00,
2013-03-01 21:19:00,33.1,25.1,29.74,NNW,338,7.0,-999.0,72,0.00,,,0.00,0,Wunderground v.1.15,2013-03-02 02:19:00,
2013-03-01 21:20:00,33.3,25.2,29.73,WNW,301,7.0,9.0,72,0.00,,,0.00,0,Wunderground v.1.15,2013-03-02 02:20:00,
2013-03-01 21:24:00,33.1,25.1,29.74,NNW,338,7.0,-999.0,72,0.00,,,0.00,0,Wunderground v.1.15,2013-03-02 02:24:00,
2013-03-01 21:25:00,33.2,25.1,29.73,NNE,28,1.0,14.0,72,0.00,,,0.00,0,Wunderground v.1.15,2013-03-02 02:25:00,
2013-03-01 21:29:00,33.1,25.1,29.74,NNW,338,7.0,-999.0,72,0.00,,,0.00,0,Wunderground v.1.15,2013-03-02 02:29:00,
2013-03-01 21:30:00,33.1,25.1,29.74,NNW,327,13.0,13.0,72,0.00,,,0.00,0,Wunderground v.1.15,2013-03-02 02:30:00,
2013-03-01 21:34:00,33.1,25.1,29.74,NNW,338,7.0,-999.0,72,0.00,,,0.00,0,Wunderground v.1.15,2013-03-02 02:34:00,
2013-03-01 21:35:00,33.0,25.0,29.74,NNW,338,6.0,19.0,72,0.00,,,0.00,0,Wunderground v.1.15,2013-03-02 02:35:00,
2013-03-01 21:39:00,33.1,25.1,29.74,NNW,338,7.0,-999.0,72,0.00,,,0.00,0,Wunderground v.1.15,2013-03-02 02:39:00,
2013-03-01 21:40:00,33.0,25.0,29.73,NNW,347,11.0,14.0,72,0.00,,,0.00,0,Wunderground v.1.15,2013-03-02 02:40:00,
2013-03-01 21:44:00,33.1,25.1,29.74,NNW,338,7.0,-999.0,72,0.00,,,0.00,0,Wunderground v.1.15,2013-03-02 02:44:00,
2013-03-01 21:45:00,32.9,24.9,29.73,NNW,347,6.0,18.0,72,0.00,,,0.00,0,Wunderground v.1.15,2013-03-02 02:45:00,
2013-03-01 21:49:00,32.8,24.4,29.73,NNW,338,8.0,-999.0,71,0.00,,,0.00,0,Wunderground v.1.15,2013-03-02 02:49:00,
2013-03-01 21:50:00,32.9,26.2,29.73,North,350,7.0,8.0,76,0.00,,,0.00,0,Wunderground v.1.15,2013-03-02 02:50:00,
2013-03-01 21:54:00,32.8,24.4,29.73,NNW,338,8.0,-999.0,71,0.00,,,0.00,0,Wunderground v.1.15,2013-03-02 02:54:00,
2013-03-01 21:55:00,32.9,24.5,29.73,North,351,13.0,15.0,71,0.00,,,0.00,0,Wunderground v.1.15,2013-03-02 02:55:00,
2013-03-01 21:59:00,32.8,24.4,29.73,NNW,338,8.0,-999.0,71,0.00,,,0.00,0,Wunderground v.1.15,2013-03-02 02:59:00,
2013-03-01 22:01:00,32.8,24.4,29.73,NNW,331,8.0,15.0,71,0.00,,,0.00,0,Wunderground v.1.15,2013-03-02 03:01:00,
2013-03-01 22:04:00,32.8,24.4,29.73,NNW,338,8.0,-999.0,71,0.00,,,0.00,0,Wunderground v.1.15,2013-03-02 03:04:00,
2013-03-01 22:06:00,32.8,24.4,29.73,North,5,11.0,16.0,71,0.00,,,0.00,0,Wunderground v.1.15,2013-03-02 03:06:00,
2013-03-01 22:09:00,32.8,24.4,29.73,NNW,338,8.0,-999.0,71,0.00,,,0.00,0,Wunderground v.1.15,2013-03-02 03:09:00,
2013-03-01 22:11:00,32.8,24.4,29.73,NE,40,5.0,9.0,71,0.00,,,0.00,0,Wunderground v.1.15,2013-03-02 03:11:00,
2013-03-01 22:14:00,32.8,24.4,29.73,NNW,338,8.0,-999.0,71,0.00,,,0.00,0,Wunderground v.1.15,2013-03-02 03:14:00,
2013-03-01 22:16:00,32.8,24.4,29.73,North,360,6.0,15.0,71,0.00,,,0.00,0,Wunderground v.1.15,2013-03-02 03:16:00,
2013-03-01 22:19:00,32.7,24.3,29.73,North,0,8.0,-999.0,71,0.00,,,0.00,0,Wunderground v.1.15,2013-03-02 03:19:00,
2013-03-01 22:21:00,32.7,24.3,29.73,North,5,8.0,17.0,71,0.00,,,0.00,0,Wunderground v.1.15,2013-03-02 03:21:00,
2013-03-01 22:24:00,32.7,24.3,29.73,North,0,8.0,-999.0,71,0.00,,,0.00,0,Wunderground v.1.15,2013-03-02 03:24:00,
2013-03-01 22:26:00,32.7,24.3,29.73,NNE,13,9.0,17.0,71,0.00,,,0.00,0,Wunderground v.1.15,2013-03-02 03:26:00,
2013-03-01 22:29:00,32.7,24.3,29.73,North,0,8.0,-999.0,71,0.00,,,0.00,0,Wunderground v.1.15,2013-03-02 03:29:00,
2013-03-01 22:31:00,32.7,24.3,29.73,NNW,333,7.0,8.0,71,0.00,,,0.00,0,Wunderground v.1.15,2013-03-02 03:31:00,
2013-03-01 22:34:00,32.7,24.3,29.73,North,0,8.0,-999.0,71,0.00,,,0.00,0,Wunderground v.1.15,2013-03-02 03:34:00,
2013-03-01 22:36:00,32.6,24.2,29.73,North,360,5.0,13.0,71,0.00,,,0.00,0,Wunderground v.1.15,2013-03-02 03:36:00,
2013-03-01 22:39:00,32.7,24.3,29.73,North,0,8.0,-999.0,71,0.00,,,0.00,0,Wunderground v.1.15,2013-03-02 03:39:00,
2013-03-01 22:41:00,32.6,24.2,29.73,North,5,3.0,7.0,71,0.00,,,0.00,0,Wunderground v.1.15,2013-03-02 03:41:00,
2013-03-01 22:44:00,32.7,24.3,29.73,North,0,8.0,-999.0,71,0.00,,,0.00,0,Wunderground v.1.15,2013-03-02 03:44:00,
2013-03-01 22:46:00,32.6,24.2,29.72,NNW,343,8.0,9.0,71,0.00,,,0.00,0,Wunderground v.1.15,2013-03-02 03:46:00,
2013-03-01 22:49:00,32.4,24.0,29.73,North,0,5.0,-999.0,71,0.00,,,0.00,0,Wunderground v.1.15,2013-03-02 03:49:00,
2013-03-01 22:51:00,32.5,24.1,29.72,NNE,17,3.0,12.0,71,0.00,,,0.00,0,Wunderground v.1.15,2013-03-02 03:51:00,
2013-03-01 22:54:00,32.4,24.0,29.73,North,0,5.0,-999.0,71,0.00,,,0.00,0,Wunderground v.1.15,2013-03-02 03:54:00,
2013-03-01 22:56:00,32.5,24.1,29.73,NNW,331,6.0,12.0,71,0.00,,,0.00,0,Wunderground v.1.15,2013-03-02 03:56:00,
2013-03-01 22:59:00,32.4,24.0,29.73,North,0,5.0,-999.0,71,0.00,,,0.00,0,Wunderground v.1.15,2013-03-02 03:59:00,
2013-03-01 23:01:00,32.4,24.0,29.73,NW,308,4.0,4.0,71,0.00,,,0.00,0,Wunderground v.1.15,2013-03-02 04:01:00,
2013-03-01 23:06:00,32.4,24.0,29.73,NNW,344,5.0,11.0,71,0.00,,,0.00,0,Wunderground v.1.15,2013-03-02 04:06:00,
2013-03-01 23:09:00,32.4,24.0,29.73,North,0,5.0,-999.0,71,0.00,,,0.00,0,Wunderground v.1.15,2013-03-02 04:09:00,
2013-03-01 23:11:00,32.4,24.4,29.73,NNE,17,6.0,9.0,72,0.00,,,0.00,0,Wunderground v.1.15,2013-03-02 04:11:00,
2013-03-01 23:14:00,32.4,24.0,29.73,North,0,5.0,-999.0,71,0.00,,,0.00,0,Wunderground v.1.15,2013-03-02 04:14:00,
2013-03-01 23:16:00,32.4,24.4,29.73,NW,318,7.0,9.0,72,0.00,,,0.00,0,Wunderground v.1.15,2013-03-02 04:16:00,
2013-03-01 23:19:00,32.3,24.3,29.72,NW,315,5.0,-999.0,72,0.00,,,0.00,0,Wunderground v.1.15,2013-03-02 04:19:00,
2013-03-01 23:21:00,32.4,24.4,29.72,NNW,335,7.0,7.0,72,0.00,,,0.00,0,Wunderground v.1.15,2013-03-02 04:21:00,
2013-03-01 23:24:00,32.3,24.3,29.72,NW,315,5.0,-999.0,72,0.00,,,0.00,0,Wunderground v.1.15,2013-03-02 04:24:00,
2013-03-01 23:26:00,32.3,24.3,29.72,NW,322,7.0,11.0,72,0.00,,,0.00,0,Wunderground v.1.15,2013-03-02 04:26:00,
2013-03-01 23:29:00,32.3,24.3,29.72,NW,315,5.0,-999.0,72,0.00,,,0.00,0,Wunderground v.1.15,2013-03-02 04:29:00,
2013-03-01 23:31:00,32.3,24.3,29.72,NW,307,11.0,11.0,72,0.00,,,0.00,0,Wunderground v.1.15,2013-03-02 04:31:00,
2013-03-01 23:34:00,32.3,24.3,29.72,NW,315,5.0,-999.0,72,0.00,,,0.00,0,Wunderground v.1.15,2013-03-02 04:34:00,
2013-03-01 23:36:00,32.2,24.2,29.73,NW,324,5.0,11.0,72,0.00,,,0.00,0,Wunderground v.1.15,2013-03-02 04:36:00,
2013-03-01 23:39:00,32.3,24.3,29.72,NW,315,5.0,-999.0,72,0.00,,,0.00,0,Wunderground v.1.15,2013-03-02 04:39:00,
2013-03-01 23:41:00,32.2,24.5,29.73,NNW,336,5.0,10.0,73,0.00,,,0.00,0,Wunderground v.1.15,2013-03-02 04:41:00,
2013-03-01 23:44:00,32.3,24.3,29.72,NW,315,5.0,-999.0,72,0.00,,,0.00,0,Wunderground v.1.15,2013-03-02 04:44:00,
2013-03-01 23:46:00,32.2,24.2,29.73,North,5,4.0,15.0,72,0.00,,,0.00,0,Wunderground v.1.15,2013-03-02 04:46:00,
2013-03-01 23:49:00,32.2,24.2,29.73,NNW,338,7.0,-999.0,72,0.00,,,0.00,0,Wunderground v.1.15,2013-03-02 04:49:00,
2013-03-01 23:52:00,32.1,24.1,29.73,North,5,3.0,11.0,72,0.00,,,0.00,0,Wunderground v.1.15,2013-03-02 04:52:00,
2013-03-01 23:54:00,32.2,24.2,29.73,NNW,338,7.0,-999.0,72,0.00,,,0.00,0,Wunderground v.1.15,2013-03-02 04:54:00,
2013-03-01 23:57:00,32.2,24.2,29.72,NNW,337,10.0,14.0,72,0.00,,,0.00,0,Wunderground v.1.15,2013-03-02 04:57:00,
2013-03-01 23:59:00,32.2,24.2,29.73,NNW,338,7.0,-999.0,72,0.00,,,0.00,0,Wunderground v.1.15,2013-03-02 04:59:00,